QPF
0.07 0.08 0.09 0.10 0.09 0.06 0.05 0.04 0.02 0.04 0.04 0.02 0.02 0.03 0.03 0.04 0.04 0.04 0.05 0.07 0.07 0.08 0.11 0.12 0.09 0.08 0.07 0.05 0.05 0.05 0.05 0.06 0.04 0.04 0.05 0.07 0.07 0.07 0.06 0.05 0.04 0.03 0.04
0.08 0.07 0.07 0.07 0.06 0.05 0.04 0.05 0.04 0.05 0.06 0.04 0.04 0.03 0.03 0.03 0.04 0.04 0.05 0.06 0.08 0.09 0.11 0.13 0.13 0.11 0.08 0.06 0.06 0.05 0.05 0.05 0.04 0.04 0.05 0.06 0.08 0.07 0.06 0.06 0.05 0.06 0.05
0.08 0.06 0.06 0.06 0.04 0.03 0.04 0.06 0.06 0.06 0.06 0.06 0.04 0.03 0.05 0.03 0.02 0.03 0.04 0.04 0.05 0.09 0.11 0.13 0.14 0.13 0.10 0.08 0.10 0.09 0.06 0.05 0.05 0.04 0.03 0.03 0.05 0.07 0.05 0.05 0.04 0.04 0.03
0.06 0.06 0.05 0.06 0.06 0.04 0.05 0.06 0.06 0.06 0.05 0.04 0.04 0.06 0.07 0.05 0.03 0.03 0.04 0.04 0.05 0.05 0.09 0.14 0.14 0.12 0.13 0.12 0.10 0.11 0.08 0.06 0.06 0.06 0.03 0.03 0.06 0.06 0.04 0.03 0.03 0.02 0.02
0.05 0.06 0.05 0.06 0.06 0.05 0.06 0.06 0.05 0.04 0.04 0.04 0.05 0.05 0.06 0.04 0.04 0.02 0.03 0.05 0.05 0.05 0.06 0.10 0.13 0.12 0.11 0.12 0.11 0.12 0.11 0.09 0.07 0.06 0.04 0.04 0.06 0.06 0.05 0.04 0.03 0.03 0.02
0.05 0.06 0.07 0.07 0.08 0.08 0.07 0.05 0.04 0.05 0.05 0.05 0.06 0.04 0.03 0.02 0.02 0.01 0.03 0.04 0.03 0.04 0.05 0.06 0.09 0.09 0.08 0.08 0.11 0.11 0.12 0.10 0.07 0.07 0.05 0.05 0.06 0.06 0.04 0.03 0.03 0.02 0.02
0.05 0.07 0.08 0.08 0.07 0.08 0.08 0.07 0.05 0.04 0.05 0.05 0.04 0.02 0.02 0.02 0.02 0.01 0.02 0.03 0.04 0.05 0.05 0.06 0.08 0.08 0.06 0.06 0.09 0.11 0.14 0.15 0.12 0.08 0.06 0.05 0.04 0.04 0.03 0.03 0.03 0.02 0.02
0.03 0.05 0.08 0.07 0.07 0.07 0.08 0.09 0.06 0.04 0.03 0.04 0.04 0.02 0.01 0.02 0.02 0.02 0.02 0.03 0.04 0.05 0.05 0.06 0.08 0.08 0.06 0.05 0.06 0.08 0.11 0.15 0.16 0.12 0.08 0.05 0.05 0.04 0.03 0.02 0.02 0.02 0.02
0.02 0.03 0.04 0.05 0.06 0.07 0.09 0.08 0.07 0.05 0.04 0.04 0.04 0.04 0.03 0.01 0.01 0.02 0.03 0.03 0.04 0.05 0.06 0.07 0.07 0.07 0.08 0.07 0.06 0.07 0.09 0.11 0.15 0.17 0.14 0.10 0.07 0.06 0.05 0.03 0.02 0.03 0.02
0.02 0.02 0.04 0.04 0.05 0.07 0.08 0.08 0.08 0.07 0.05 0.04 0.05 0.06 0.04 0.02 0.02 0.04 0.06 0.05 0.05 0.04 0.03 0.04 0.06 0.06 0.06 0.05 0.05 0.07 0.08 0.08 0.09 0.13 0.16 0.14 0.11 0.08 0.06 0.05 0.04 0.04 0.03
0.02 0.02 0.04 0.05 0.07 0.06 0.07 0.07 0.06 0.07 0.05 0.04 0.05 0.06 0.06 0.03 0.02 0.06 0.14 0.10 0.06 0.05 0.04 0.03 0.03 0.04 0.03 0.04 0.04 0.05 0.07 0.06 0.06 0.07 0.10 0.13 0.13 0.09 0.07 0.06 0.07 0.06 0.05
0.02 0.04 0.06 0.06 0.07 0.09 0.09 0.07 0.07 0.07 0.05 0.05 0.06 0.06 0.06 0.05 0.05 0.10 0.16 0.14 0.08 0.06 0.04 0.03 0.02 0.03 0.04 0.04 0.03 0.04 0.05 0.06 0.07 0.09 0.10 0.12 0.15 0.18 0.15 0.12 0.12 0.11 0.09
0.04 0.05 0.05 0.06 0.07 0.08 0.10 0.07 0.07 0.06 0.05 0.06 0.06 0.04 0.04 0.06 0.06 0.08 0.13 0.13 0.08 0.06 0.05 0.04 0.03 0.04 0.05 0.04 0.03 0.04 0.05 0.07 0.07 0.08 0.10 0.12 0.14 0.16 0.20 0.19 0.16 0.15 0.14
0.03 0.04 0.05 0.07 0.07 0.08 0.09 0.09 0.07 0.06 0.06 0.05 0.04 0.03 0.04 0.06 0.05 0.05 0.10 0.10 0.08 0.06 0.05 0.04 0.04 0.04 0.04 0.03 0.03 0.05 0.05 0.07 0.08 0.09 0.11 0.12 0.14 0.14 0.14 0.15 0.16 0.17 0.16
0.03 0.03 0.04 0.05 0.06 0.07 0.10 0.10 0.07 0.08 0.07 0.05 0.04 0.04 0.04 0.03 0.04 0.04 0.03 0.05 0.06 0.05 0.04 0.04 0.03 0.04 0.03 0.02 0.04 0.04 0.06 0.07 0.07 0.09 0.11 0.10 0.12 0.14 0.14 0.14 0.13 0.14 0.16
0.03 0.03 0.04 0.04 0.05 0.06 0.07 0.07 0.07 0.10 0.08 0.06 0.06 0.05 0.05 0.03 0.02 0.01 0.01 0.02 0.03 0.04 0.04 0.04 0.04 0.05 0.03 0.03 0.04 0.03 0.04 0.05 0.06 0.08 0.10 0.10 0.11 0.13 0.15 0.16 0.16 0.16 0.14
0.05 0.06 0.05 0.04 0.04 0.05 0.06 0.06 0.06 0.08 0.07 0.07 0.06 0.05 0.04 0.03 0.02 0.01 0.02 0.02 0.03 0.05 0.06 0.05 0.03 0.03 0.03 0.03 0.04 0.04 0.03 0.04 0.05 0.08 0.08 0.08 0.08 0.10 0.10 0.11 0.11 0.10 0.10
0.06 0.07 0.05 0.04 0.04 0.06 0.08 0.08 0.07 0.07 0.06 0.07 0.07 0.06 0.04 0.03 0.03 0.02 0.02 0.01 0.01 0.02 0.03 0.02 0.02 0.02 0.03 0.05 0.03 0.04 0.04 0.04 0.04 0.06 0.05 0.06 0.06 0.06 0.05 0.05 0.06 0.06 0.07
0.08 0.07 0.06 0.05 0.05 0.06 0.08 0.08 0.09 0.10 0.09 0.09 0.09 0.06 0.05 0.05 0.03 0.03 0.02 0.01 0.01 0.01 0.01 0.01 0.01 0.02 0.02 0.03 0.03 0.03 0.04 0.04 0.03 0.02 0.03 0.04 0.05 0.05 0.05 0.05 0.05 0.06 0.08
0.04 0.05 0.07 0.07 0.07 0.07 0.08 0.09 0.12 0.12 0.11 0.08 0.06 0.05 0.04 0.04 0.03 0.03 0.03 0.02 0.02 0.01 0.01 0.01 0.01 0.02 0.01 0.02 0.01 0.01 0.02 0.02 0.01 0.02 0.02 0.02 0.02 0.03 0.03 0.03 0.04 0.05 0.06
0.05 0.05 0.06 0.08 0.10 0.10 0.11 0.10 0.10 0.10 0.11 0.08 0.05 0.04 0.03 0.03 0.03 0.04 0.04 0.04 0.03 0.02 0.01 0.01 0.01 0.02 0.02 0.02 0.02 0.01 0.01 0.01 0.02 0.02 0.01 0.01 0.01 0.01 0.02 0.03 0.03 0.03 0.03
0.07 0.06 0.05 0.05 0.07 0.11 0.14 0.11 0.09 0.10 0.09 0.07 0.05 0.03 0.03 0.03 0.03 0.02 0.03 0.03 0.03 0.03 0.02 0.02 0.01 0.01 0.01 0.01 0.02 0.01 0.01 0.01 0.01 0.01 0.01 0.01 0.01 0.01 0.01 0.01 0.02 0.02 0.02
0.09 0.06 0.04 0.04 0.08 0.10 0.10 0.09 0.09 0.07 0.05 0.05 0.04 0.04 0.03 0.04 0.05 0.04 0.03 0.03 0.02 0.03 0.04 0.04 0.04 0.03 0.02 0.02 0.01 0.01 0.01 0.01 0.01 0.01 0.02 0.01 0.01 0.01 0.01 0.01 0.02 0.02 0.02
0.06 0.05 0.05 0.06 0.06 0.06 0.06 0.06 0.07 0.06 0.06 0.05 0.05 0.03 0.03 0.03 0.04 0.04 0.03 0.03 0.02 0.03 0.03 0.03 0.03 0.03 0.03 0.03 0.03 0.02 0.02 0.01 0.01 0.01 0.01 0.01 0.01 0.01 0.01 0.01 0.01 0.02 0.02
0.07 0.05 0.04 0.05 0.05 0.04 0.05 0.04 0.04 0.03 0.04 0.04 0.04 0.04 0.04 0.05 0.05 0.05 0.03 0.02 0.02 0.02 0.02 0.02 0.02 0.03 0.03 0.04 0.04 0.04 0.03 0.03 0.02 0.01 0.01 0.01 0.02 0.02 0.02 0.01 0.02 0.03 0.03
0.05 0.06 0.05 0.05 0.03 0.03 0.04 0.04 0.03 0.02 0.03 0.04 0.03 0.03 0.04 0.04 0.05 0.04 0.02 0.01 0.01 0.01 0.01 0.02 0.02 0.02 0.03 0.04 0.05 0.05 0.05 0.06 0.05 0.05 0.04 0.04 0.05 0.05 0.05 0.04 0.03 0.03 0.02
MSLP
1017.26 1017.24 1017.15 1017.00 1016.84 1016.69 1016.61 1016.60 1016.66 1016.78 1016.91 1017.01 1017.06 1017.02 1016.90 1016.71 1016.48 1016.26 1016.08 1015.97 1015.95 1016.03 1016.21 1016.47 1016.80 1017.17 1017.57 1017.97 1018.35 1018.69 1018.99 1019.23 1019.42 1019.57 1019.71 1019.85 1020.02 1020.22 1020.47 1020.73 1021.02 1021.29 1021.54
1017.38 1017.31 1017.19 1017.03 1016.88 1016.75 1016.69 1016.70 1016.79 1016.92 1017.06 1017.17 1017.21 1017.16 1017.01 1016.78 1016.50 1016.20 1015.92 1015.71 1015.59 1015.59 1015.70 1015.93 1016.25 1016.64 1017.08 1017.52 1017.94 1018.32 1018.64 1018.90 1019.10 1019.26 1019.41 1019.58 1019.77 1020.00 1020.27 1020.57 1020.87 1021.16 1021.41
1017.56 1017.46 1017.33 1017.18 1017.05 1016.96 1016.92 1016.96 1017.05 1017.18 1017.31 1017.41 1017.45 1017.39 1017.23 1016.98 1016.66 1016.30 1015.95 1015.65 1015.43 1015.33 1015.36 1015.52 1015.80 1016.18 1016.61 1017.06 1017.51 1017.91 1018.25 1018.53 1018.75 1018.93 1019.11 1019.30 1019.52 1019.79 1020.08 1020.39 1020.70 1020.98 1021.23
1017.82 1017.70 1017.57 1017.45 1017.35 1017.29 1017.28 1017.31 1017.39 1017.50 1017.61 1017.70 1017.72 1017.67 1017.52 1017.29 1016.97 1016.60 1016.21 1015.85 1015.56 1015.36 1015.30 1015.37 1015.57 1015.88 1016.27 1016.70 1017.13 1017.53 1017.88 1018.18 1018.42 1018.63 1018.84 1019.06 1019.32 1019.60 1019.90 1020.21 1020.50 1020.76 1020.98
1018.14 1018.01 1017.90 1017.81 1017.74 1017.70 1017.69 1017.71 1017.76 1017.83 1017.90 1017.96 1017.99 1017.96 1017.85 1017.67 1017.41 1017.08 1016.72 1016.35 1016.01 1015.75 1015.59 1015.56 1015.66 1015.88 1016.19 1016.55 1016.93 1017.30 1017.64 1017.93 1018.19 1018.43 1018.67 1018.92 1019.19 1019.48 1019.78 1020.06 1020.31 1020.51 1020.66
1018.49 1018.36 1018.27 1018.21 1018.17 1018.14 1018.12 1018.11 1018.10 1018.11 1018.13 1018.16 1018.19 1018.20 1018.17 1018.10 1017.95 1017.73 1017.44 1017.12 1016.79 1016.50 1016.27 1016.15 1016.14 1016.24 1016.44 1016.70 1017.00 1017.31 1017.61 1017.89 1018.14 1018.39 1018.65 1018.92 1019.20 1019.48 1019.75 1019.98 1020.15 1020.26 1020.31
1018.84 1018.72 1018.65 1018.61 1018.59 1018.56 1018.51 1018.45 1018.37 1018.31 1018.27 1018.27 1018.31 1018.39 1018.47 1018.53 1018.54 1018.48 1018.33 1018.12 1017.85 1017.57 1017.31 1017.11 1017.00 1016.98 1017.06 1017.21 1017.40 1017.63 1017.86 1018.10 1018.34 1018.59 1018.84 1019.11 1019.39 1019.64 1019.86 1020.01 1020.08 1020.06 1019.98
1019.17 1019.06 1019.02 1019.00 1018.99 1018.95 1018.86 1018.74 1018.59 1018.44 1018.35 1018.32 1018.38 1018.52 1018.72 1018.94 1019.14 1019.27 1019.30 1019.23 1019.07 1018.85 1018.60 1018.36 1018.18 1018.06 1018.02 1018.05 1018.14 1018.27 1018.43 1018.61 1018.81 1019.03 1019.28 1019.53 1019.77 1019.99 1020.13 1020.19 1020.13 1019.98 1019.74
1019.48 1019.40 1019.38 1019.38 1019.37 1019.32 1019.20 1019.01 1018.79 1018.57 1018.41 1018.36 1018.43 1018.64 1018.95 1019.33 1019.71 1020.03 1020.25 1020.35 1020.33 1020.20 1020.00 1019.77 1019.55 1019.37 1019.24 1019.17 1019.16 1019.19 1019.27 1019.39 1019.54 1019.72 1019.94 1020.16 1020.37 1020.52 1020.60 1020.55 1020.38 1020.08 1019.69
1019.79 1019.74 1019.75 1019.77 1019.77 1019.71 1019.55 1019.31 1019.03 1018.75 1018.54 1018.46 1018.54 1018.79 1019.18 1019.68 1020.20 1020.69 1021.09 1021.36 1021.48 1021.47 1021.35 1021.17 1020.96 1020.76 1020.58 1020.45 1020.36 1020.32 1020.32 1020.37 1020.47 1020.61 1020.78 1020.97 1021.13 1021.23 1021.23 1021.10 1020.82 1020.41 1019.89
1020.14 1020.13 1020.17 1020.22 1020.22 1020.15 1019.97 1019.70 1019.36 1019.04 1018.78 1018.67 1018.74 1019.00 1019.44 1020.00 1020.63 1021.23 1021.76 1022.16 1022.41 1022.52 1022.51 1022.41 1022.26 1022.08 1021.91 1021.75 1021.63 1021.53 1021.48 1021.47 1021.52 1021.61 1021.74 1021.88 1022.00 1022.06 1022.01 1021.82 1021.47 1020.97 1020.37
1020.58 1020.60 1020.66 1020.73 1020.75 1020.67 1020.48 1020.19 1019.83 1019.47 1019.19 1019.04 1019.09 1019.33 1019.76 1020.34 1020.99 1021.65 1022.24 1022.73 1023.09 1023.31 1023.41 1023.41 1023.35 1023.24 1023.11 1022.98 1022.85 1022.73 1022.64 1022.59 1022.59 1022.64 1022.72 1022.83 1022.92 1022.94 1022.87 1022.65 1022.27 1021.75 1021.11
1021.12 1021.16 1021.24 1021.32 1021.34 1021.26 1021.08 1020.78 1020.42 1020.05 1019.75 1019.58 1019.59 1019.80 1020.18 1020.71 1021.33 1021.97 1022.57 1023.10 1023.52 1023.83 1024.03 1024.14 1024.19 1024.18 1024.13 1024.05 1023.95 1023.84 1023.74 1023.66 1023.61 1023.62 1023.67 1023.74 1023.81 1023.83 1023.75 1023.54 1023.18 1022.68 1022.05
1021.76 1021.82 1021.90 1021.97 1021.98 1021.91 1021.73 1021.45 1021.10 1020.75 1020.46 1020.27 1020.25 1020.39 1020.70 1021.15 1021.69 1022.26 1022.82 1023.33 1023.78 1024.14 1024.43 1024.65 1024.81 1024.91 1024.96 1024.95 1024.90 1024.82 1024.72 1024.62 1024.55 1024.52 1024.53 1024.58 1024.63 1024.65 1024.60 1024.42 1024.12 1023.67 1023.12
1022.49 1022.53 1022.59 1022.64 1022.64 1022.56 1022.39 1022.14 1021.83 1021.52 1021.25 1021.08 1021.03 1021.12 1021.35 1021.70 1022.12 1022.59 1023.08 1023.54 1023.97 1024.36 1024.71 1025.01 1025.27 1025.48 1025.62 1025.70 1025.71 1025.66 1025.57 1025.47 1025.37 1025.31 1025.29 1025.32 1025.36 1025.39 1025.36 1025.24 1025.00 1024.64 1024.19
1023.26 1023.27 1023.29 1023.30 1023.27 1023.18 1023.03 1022.81 1022.56 1022.31 1022.09 1021.94 1021.89 1021.95 1022.11 1022.36 1022.67 1023.03 1023.41 1023.80 1024.19 1024.58 1024.96 1025.33 1025.67 1025.96 1026.19 1026.34 1026.40 1026.39 1026.31 1026.20 1026.08 1026.00 1025.95 1025.95 1025.98 1026.02 1026.02 1025.95 1025.79 1025.52 1025.17
1024.03 1023.99 1023.95 1023.91 1023.84 1023.75 1023.61 1023.44 1023.26 1023.08 1022.93 1022.83 1022.80 1022.85 1022.96 1023.14 1023.35 1023.61 1023.89 1024.20 1024.53 1024.90 1025.28 1025.68 1026.06 1026.41 1026.70 1026.90 1027.01 1027.02 1026.95 1026.84 1026.71 1026.59 1026.52 1026.50 1026.51 1026.54 1026.56 1026.53 1026.43 1026.24 1025.99
1024.75 1024.65 1024.56 1024.47 1024.37 1024.27 1024.15 1024.03 1023.91 1023.81 1023.74 1023.71 1023.73 1023.78 1023.88 1024.00 1024.14 1024.32 1024.51 1024.75 1025.02 1025.34 1025.71 1026.10 1026.50 1026.87 1027.18 1027.41 1027.54 1027.57 1027.51 1027.39 1027.25 1027.12 1027.02 1026.98 1026.97 1026.99 1027.01 1027.00 1026.93 1026.80 1026.61
1025.40 1025.26 1025.12 1025.00 1024.87 1024.76 1024.66 1024.58 1024.53 1024.50 1024.51 1024.55 1024.62 1024.70 1024.79 1024.89 1025.00 1025.11 1025.24 1025.40 1025.62 1025.89 1026.22 1026.58 1026.96 1027.33 1027.64 1027.87 1028.00 1028.04 1027.98 1027.87 1027.72 1027.58 1027.48 1027.41 1027.38 1027.38 1027.39 1027.37 1027.31 1027.20 1027.05
1025.98 1025.82 1025.66 1025.51 1025.37 1025.26 1025.18 1025.13 1025.13 1025.16 1025.23 1025.33 1025.44 1025.56 1025.66 1025.76 1025.83 1025.91 1025.99 1026.11 1026.27 1026.49 1026.77 1027.09 1027.43 1027.76 1028.04 1028.26 1028.39 1028.42 1028.37 1028.26 1028.13 1027.99 1027.88 1027.80 1027.76 1027.73 1027.72 1027.68 1027.61 1027.50 1027.35
1026.49 1026.35 1026.19 1026.04 1025.90 1025.80 1025.72 1025.70 1025.72 1025.79 1025.89 1026.03 1026.17 1026.31 1026.43 1026.52 1026.60 1026.65 1026.71 1026.79 1026.91 1027.08 1027.30 1027.56 1027.85 1028.13 1028.38 1028.56 1028.68 1028.71 1028.67 1028.58 1028.46 1028.34 1028.24 1028.16 1028.10 1028.06 1028.02 1027.96 1027.86 1027.73 1027.57
1026.96 1026.85 1026.72 1026.59 1026.46 1026.36 1026.29 1026.27 1026.30 1026.37 1026.49 1026.63 1026.79 1026.93 1027.06 1027.16 1027.23 1027.27 1027.32 1027.37 1027.46 1027.58 1027.76 1027.96 1028.20 1028.42 1028.63 1028.78 1028.87 1028.90 1028.88 1028.81 1028.72 1028.62 1028.54 1028.48 1028.42 1028.37 1028.31 1028.22 1028.10 1027.94 1027.76
1027.37 1027.32 1027.23 1027.13 1027.03 1026.93 1026.86 1026.83 1026.84 1026.90 1027.00 1027.13 1027.28 1027.42 1027.54 1027.64 1027.71 1027.76 1027.79 1027.83 1027.89 1027.99 1028.12 1028.28 1028.46 1028.63 1028.79 1028.92 1028.99 1029.02 1029.01 1028.97 1028.91 1028.85 1028.79 1028.75 1028.70 1028.65 1028.58 1028.48 1028.33 1028.16 1027.95
1027.72 1027.73 1027.69 1027.63 1027.55 1027.46 1027.38 1027.33 1027.32 1027.35 1027.42 1027.52 1027.64 1027.77 1027.88 1027.98 1028.05 1028.10 1028.14 1028.17 1028.22 1028.30 1028.39 1028.51 1028.65 1028.78 1028.90 1029.00 1029.06 1029.09 1029.10 1029.08 1029.05 1029.02 1028.99 1028.97 1028.94 1028.89 1028.82 1028.71 1028.56 1028.37 1028.15
1027.97 1028.04 1028.05 1028.02 1027.96 1027.88 1027.80 1027.73 1027.69 1027.69 1027.73 1027.81 1027.91 1028.02 1028.12 1028.22 1028.29 1028.35 1028.39 1028.43 1028.47 1028.53 1028.61 1028.70 1028.80 1028.90 1028.99 1029.06 1029.12 1029.14 1029.15 1029.15 1029.14 1029.13 1029.13 1029.12 1029.10 1029.06 1029.00 1028.89 1028.74 1028.55 1028.33
1028.10 1028.21 1028.26 1028.25 1028.21 1028.13 1028.05 1027.98 1027.93 1027.92 1027.94 1028.01 1028.10 1028.20 1028.31 1028.40 1028.49 1028.55 1028.60 1028.64 1028.68 1028.73 1028.79 1028.85 1028.93 1029.00 1029.07 1029.12 1029.16 1029.19 1029.20 1029.20 1029.20 1029.20 1029.20 1029.20 1029.18 1029.15 1029.09 1028.98 1028.84 1028.66 1028.45
Thickness
5750 5749 5748 5747 5746 5745 5744 5744 5743 5742 5741 5740 5740 5739 5739 5737 5736 5736 5735 5735 5734 5733 5732 5731 5730 5728 5727 5725 5724 5722 5721 5720 5718 5717 5716 5715 5713 5712 5711 5710 5709 5708 5707
5750 5748 5747 5746 5745 5745 5744 5743 5742 5741 5740 5740 5739 5739 5738 5737 5736 5735 5735 5734 5734 5733 5733 5731 5730 5729 5727 5726 5724 5723 5721 5720 5718 5717 5716 5714 5713 5712 5711 5709 5708 5707 5706
5749 5748 5747 5746 5745 5744 5743 5743 5742 5741 5740 5739 5738 5738 5737 5736 5735 5735 5734 5733 5733 5733 5732 5732 5730 5729 5727 5726 5725 5723 5721 5720 5718 5717 5715 5714 5712 5711 5710 5708 5707 5706 5705
5750 5748 5747 5746 5745 5745 5743 5742 5741 5739 5738 5737 5736 5736 5735 5735 5735 5734 5734 5733 5733 5733 5732 5731 5730 5729 5727 5726 5725 5723 5721 5720 5718 5716 5715 5714 5712 5710 5709 5708 5706 5705 5704
5750 5749 5748 5746 5745 5745 5743 5742 5740 5739 5737 5736 5735 5735 5734 5734 5734 5734 5733 5733 5733 5732 5732 5731 5730 5728 5727 5726 5724 5723 5721 5719 5718 5716 5715 5713 5711 5710 5708 5707 5705 5704 5703
5750 5749 5747 5746 5745 5743 5741 5740 5738 5737 5736 5735 5735 5733 5733 5733 5733 5732 5732 5732 5732 5731 5731 5730 5729 5728 5726 5725 5724 5723 5721 5719 5717 5716 5714 5713 5711 5709 5708 5706 5705 5703 5702
5750 5748 5747 5745 5744 5742 5740 5739 5737 5735 5734 5734 5731 5728 5729 5731 5731 5731 5731 5730 5730 5730 5729 5728 5727 5726 5725 5724 5723 5722 5720 5719 5717 5716 5714 5712 5711 5709 5707 5705 5704 5702 5701
5749 5748 5747 5745 5743 5741 5739 5738 5737 5734 5733 5733 5730 5725 5722 5723 5727 5730 5729 5728 5728 5728 5727 5727 5725 5724 5723 5723 5722 5721 5720 5718 5717 5715 5714 5712 5711 5709 5707 5705 5703 5702 5700
5749 5748 5747 5745 5743 5741 5738 5737 5736 5734 5731 5731 5731 5727 5721 5718 5720 5725 5726 5726 5726 5726 5725 5725 5724 5723 5722 5721 5720 5719 5718 5717 5716 5715 5714 5712 5710 5708 5707 5705 5703 5701 5700
5750 5749 5747 5745 5743 5741 5739 5738 5737 5735 5733 5730 5730 5729 5728 5726 5720 5717 5721 5723 5724 5724 5723 5723 5723 5722 5720 5719 5718 5718 5717 5716 5715 5714 5713 5711 5709 5708 5706 5704 5702 5700 5699
5751 5749 5748 5746 5743 5741 5740 5738 5737 5735 5733 5731 5729 5728 5726 5724 5723 5718 5715 5717 5719 5721 5721 5721 5721 5720 5719 5717 5716 5716 5715 5714 5713 5713 5711 5710 5708 5707 5705 5703 5701 5700 5698
5749 5748 5747 5745 5743 5741 5739 5738 5737 5735 5733 5732 5730 5728 5726 5724 5721 5719 5715 5714 5714 5716 5718 5718 5718 5718 5717 5715 5714 5714 5713 5712 5711 5710 5709 5708 5706 5705 5704 5702 5700 5698 5696
5746 5746 5745 5743 5742 5741 5739 5738 5736 5734 5732 5731 5729 5728 5727 5726 5724 5721 5717 5713 5711 5712 5713 5715 5715 5715 5714 5712 5712 5711 5710 5709 5708 5707 5706 5705 5704 5703 5702 5700 5698 5696 5694
5746 5745 5744 5742 5741 5740 5738 5736 5734 5732 5731 5730 5729 5727 5726 5725 5724 5721 5718 5714 5709 5708 5708 5709 5711 5711 5710 5709 5708 5707 5706 5705 5704 5703 5702 5701 5700 5699 5697 5696 5694 5692 5690
5746 5744 5743 5741 5739 5738 5736 5734 5731 5729 5728 5727 5726 5725 5724 5723 5722 5721 5719 5717 5711 5705 5703 5705 5706 5707 5706 5705 5704 5703 5702 5702 5700 5699 5697 5696 5695 5694 5692 5691 5689 5687 5685
5746 5743 5742 5740 5738 5736 5734 5731 5729 5727 5725 5724 5722 5721 5720 5719 5719 5718 5717 5715 5713 5708 5701 5700 5700 5701 5701 5701 5699 5698 5697 5696 5695 5694 5692 5690 5689 5688 5686 5685 5683 5681 5680
5744 5741 5739 5737 5735 5733 5731 5728 5726 5724 5722 5720 5720 5718 5716 5716 5715 5714 5713 5711 5708 5706 5700 5696 5696 5697 5696 5695 5694 5693 5691 5690 5689 5688 5686 5684 5682 5681 5680 5678 5676 5674 5673
5742 5739 5736 5734 5732 5730 5727 5725 5723 5721 5719 5717 5715 5714 5712 5712 5711 5709 5708 5706 5704 5702 5698 5693 5692 5691 5691 5689 5688 5686 5685 5684 5682 5680 5679 5677 5675 5673 5672 5670 5668 5667 5665
5739 5736 5733 5730 5728 5726 5724 5722 5720 5718 5716 5714 5712 5710 5708 5707 5705 5704 5703 5701 5699 5698 5695 5691 5688 5686 5684 5683 5681 5680 5678 5676 5675 5673 5671 5669 5666 5665 5663 5662 5660 5658 5656
5735 5732 5729 5726 5725 5723 5721 5719 5717 5714 5712 5710 5709 5707 5705 5703 5701 5700 5698 5695 5694 5691 5689 5686 5683 5680 5678 5676 5674 5672 5670 5667 5665 5664 5662 5659 5657 5656 5654 5652 5651 5649 5647
5732 5728 5725 5722 5720 5718 5717 5714 5712 5710 5707 5705 5703 5702 5701 5699 5698 5696 5694 5691 5688 5685 5683 5679 5676 5674 5671 5669 5666 5665 5662 5659 5657 5654 5652 5650 5648 5646 5644 5642 5640 5639 5637
5728 5725 5721 5718 5715 5714 5712 5710 5708 5705 5702 5700 5698 5697 5696 5694 5692 5691 5689 5687 5685 5681 5677 5674 5670 5668 5665 5663 5660 5658 5655 5653 5650 5646 5644 5641 5639 5637 5634 5632 5630 5628 5627
5723 5719 5716 5713 5711 5709 5707 5705 5704 5701 5698 5695 5693 5692 5691 5689 5687 5685 5682 5680 5677 5674 5672 5669 5665 5662 5659 5657 5655 5651 5648 5646 5643 5639 5636 5632 5630 5627 5624 5622 5620 5619 5617
5718 5714 5710 5708 5705 5703 5701 5700 5698 5695 5692 5690 5688 5686 5684 5682 5681 5678 5675 5672 5669 5666 5664 5662 5659 5657 5654 5651 5648 5645 5641 5637 5633 5630 5627 5624 5620 5617 5615 5612 5610 5608 5606
5711 5708 5705 5702 5700 5697 5695 5693 5692 5689 5686 5683 5681 5679 5678 5676 5674 5671 5668 5664 5661 5658 5656 5654 5652 5649 5647 5644 5641 5638 5633 5630 5626 5622 5617 5615 5611 5608 5606 5603 5600 5598 5596
5705 5702 5698 5696 5693 5690 5688 5686 5685 5682 5678 5675 5673 5672 5670 5668 5666 5663 5660 5657 5653 5650 5647 5646 5643 5641 5638 5635 5632 5629 5626 5622 5618 5614 5610 5606 5603 5600 5597 5594 5590 5588 5585